KUIPER-00135

导读 | 豆包AI

KUIPER-00163是美国亚马逊柯伊伯(Project Kuiper)卫星互联网星座计划中的一颗卫星,于2025年9月25日成功发射。该项目旨在通过近地轨道卫星群,为全球偏远地区、海洋等网络覆盖薄弱区域提供高速低延迟的互联网接入服务,KUIPER-00163将助力项目完成星座组网,推动全球宽带覆盖目标的实现。

基本信息
目录编号:
65777
目录名称:
KUIPER-00163
国际标识:
2025-217R
轨道中心:
EARTH
卫星名称:
KUIPER-00163
卫星全名:
KUIPER-00135
卫星状态:
在轨 (已飞行242 天)
发射日期:
2025-09-25 UTC
国别 :
美国 (US)
星等 :
--
轨道信息
数据来源 国际轨道数据
星历时间: 2026-05-24T12:15:43+0800
23小时前
查看轨道信息
半长轴: 6704.752km
偏心率: 0.0002293
轨道倾角: 51.895°
近地点辐角 155.539°
升交点赤经 30.244°
平近点角 204.572°
近地点: 325.077km
远地点: 328.153km
周期: 91.061分钟
每日圈数: 15.813526
详细信息
使用方式:
暂无
2D轨道图
3D轨道图
轨道高度分析图
轨道倾角分析图
轨道综合分析图
查看轨道综合分析图